Погода Ефимовская

Погода Ефимовская : погода сейчас, прогноз погоды и архив. Всё, что Вы хотите узнать о погоде Ефимовская!

Поиск расширенной информации на нашем сайте:

Другие новости

Новости СМИ2

Главная страница сайта

Новости сайта

03.07.2017

Напоминаем, что на нашем специализированном сайте Метеоцентр.Азия вы можете получить высокодетализированные автоматические прогнозы погоды по пунктам России, СНГ и мира в авиационном формате (включающие направление и скорость ветра, видимость, явления погоды, количество и форму облачности, нижнюю и верхнюю границу облачности).


Погода Ефимовская - сегодня

Время (UTC), дата Ветер
(°,м/с) 
Видим.   Явления Облачность Т
(°С)
Тd
(°С)
f(%) Тe
(°С)
Pmin
(гПа)
dP
(гПа)
Po
(мм)
O2
(г/м3)
Тmin Tmax R s Состояние
почвы
06 16.01.18 160 (Ю) 20000 м    10/10 500 м 
[St]
-5.5 -7 89 -9  1026.3  -1  753  310  -6.1    0.2  31  равномерный
сухой снег
100% 
09 16.01.18 160 (Ю) н/о    н/о 
-6.5 -8.3 87 -10  1026.1  -0.3  752  311           
12 16.01.18 160 (Ю) н/о    н/о 
-6.5 -8.2 88 -9  1025  -1.1  752  311           
15 16.01.18 140 (ЮВ) н/о    н/о 
-7.9 -9.4 89 -12  1023.9  -1.2  751  312           
18 16.01.18 140 (ЮВ) 20000 м    10/10 360 м 
[St]
-9.1 -10.2 92 -13  1022.6  -1.3  750  314    -5.6       
21 16.01.18 140 (ЮВ) 4{11}  н/о    н/о 
-9.5 -11 89 -13  1020.8  -1.8  748  313           
00 17.01.18 140 (ЮВ) 5{10}  н/о    н/о 
-9 -10.3 90 -14  1018.8  -1.9  747  312           
03 17.01.18 130 (ЮВ) 4{12}  н/о    н/о 
-9.2 -10.8 88 -13  1016.6  -2.2  745  312  -9.6         
06 17.01.18 130 (ЮВ) 4{10}  4000 м  слаб. снег  10/10 360 м 
[Frnb|Ns]
-9.4 -10.6 91 -13  1014.9  -1.7  744  312  -9.6    0.3  31  равномерный
сухой снег
100% 
09 17.01.18 130 (ЮВ) 4{10}  н/о    н/о 
-8.7 -9.8 92 -12  1013.9  -1.3  743  310           
12 17.01.18 120 (ЮВ) 4{11}  н/о    н/о 
-8.1 -9.6 89 -12  1011.8  -2  742  309           
15 17.01.18 130 (ЮВ) 5{11}  н/о    н/о 
-7.9 -9.1 91 -12  1010.8  -1  741  308           
18 17.01.18 130 (ЮВ) 5{11}  20000 м  позёмок  10/10 540 м 
[Sc]
-8.2 -9.8 88 -13  1010.4  -0.4  741  309    -7.9  0.5     
21 17.01.18 120 (ЮВ) 4{10}  н/о    н/о 
-8 -9.4 90 -12  1010.7  0.3  741  309           
00 18.01.18 120 (ЮВ) 5-10{11}  н/о    н/о 
-7.9 -9.6 88 -12  1008.8  -1.9  740  308           
03 18.01.18 120 (ЮВ) 3{11}  н/о    н/о 
-8.5 -10 89 -11  1007.4  -1.4  739  308  -8.5         
06 18.01.18 110 (В) 4{12}  4000 м  слаб. снег  10/0 средняя 
[As op]
-10.9 -13 84 -15  1007.2  -0.4  738  311  -10.9    0.2  32  равномерный
сухой снег
100% 
09 18.01.18 130 (ЮВ) 5{12}  н/о    н/о 
-10.5 -12.8 83 -15  1007.1  0.1  738  311           
12 18.01.18 130 (ЮВ) 4{10}  н/о    н/о 
-9.9 -11.5 88 -14  1006.3  -0.7  738  309           
15 18.01.18 130 (ЮВ) н/о    н/о 
-9.5 -10.8 90 -12  1006.6  0.3  738  309           
18 18.01.18 140 (ЮВ) 4000 м  слаб. снег  10/10 330 м 
[Frnb|Ns]
-8.7 -9.9 91 -12  1006.9  0.3  738  308    -8.7  0.9     
21 18.01.18 140 (ЮВ) н/о    н/о 
-7.7 -8.6 93 -10  1008  1.2  739  307           
00 19.01.18 150 (ЮВ) н/о    н/о 
-7.1 -8 93 -10  1008.5  0.6  740  307           
03 19.01.18 130 (ЮВ) н/о    н/о 
-6.7 -7.6 93 -8  1009.4  0.9  740  307  -9.5         
06 19.01.18 110 (В) 20000 м    10/0 средняя 
[As op]
-7 -7.9 93 -8  1010.2  0.8  741  307  -8.7      33  равномерный
сухой снег
100% 
Время (UTC), дата Ветер
(°,м/с) 
Видим.   Явления Облачность Т
(°С)
Тd
(°С)
f(%) Тe
(°С)
Pmin
(гПа)
dP
(гПа)
Po
(мм)
O2
(г/м3)
Тmin Tmax R s Состояние
почвы

Для получения пояснительной информации подведите курсор к названию столбца.

ПОГОДА Ефимовская - архив

Всё, что Вы хотите узнать о погоде Ефимовская - удобно и подробно!

Выберите нужную дату (начиная с 1 января 2015* года) и нажмите кнопку "Найти".
Будут отображены архивные сводки погоды по пункту Ефимовская, начиная с указанной даты.


Отображать данные в формате CSV (для использования в таблицах Excel)


Внимание! Наш архив погоды предназначен исключительно для личного некоммерческого использования в познавательных целях. Если Вам необходимы официальные справки о состоянии погоды (для производственных, юридических, коммерческих и т.п. целей), обращайтесь в органы Росгидромета.

*Примечание: данная дата относится к архиву по метеостанциям СССР (Россия, СНГ, Балтия).
Архив по метеостанциям Зарубежной Европы и Азии (кроме Китая) хранится 10 дней, по другим регионам земного шара (Китай, Африка, Америка, Австралия, Океания) - 1 день.

Ефимовская - район местоположения метеостанции


Название, широта, долгота, высота метеостанции:
Ефимовская 59.5°ш. 34.7°д. 176 м над ур. моря [Российская Федерация]

Дополнительная информация

В oтличие oт бoльшинства пoгoдных сайтoв мы публикуем пoдрoбную метеoинфoрмацию в детальнoм прoфессиoнальнoм фoрмате.

Характеристики температуры и влажнoсти вoздуха измеряются на высoте 2 м в тени вдали oт зданий и деревьев.
Скoрoсть ветра измеряется на высoте 10 м (на урoвне рoста челoвека скoрoсть ветра ниже в 1.5-2 раза). Если метеoстанция нахoдится в гoрoде или в лесу, тo скoрoсть ветра занижена на 2-4 м/с пo сравнению с oткрытым местoм. Скoрoсть ветра над акватoриями крупных рек и oзёр, а также на вершинах хoлмoв на 2-5 м/с выше, чем в oбычных услoвиях.
Атмoсфернoе давление в разных тoчках местнoсти мoжет значительнo oтличаться oт давления на метеoстанции, в зависимoсти oт услoвий рельефа (при пoдъёме на 10 м давление пoнижается примернo на 1 мм рт.ст.).